Radiation Dose at Monitoring Post of Fukushima Daini Nuclear Power Station
Date,Time,MP-1(microSv/h),MP-2(microSv/h),MP-3(microSv/h),MP-4(microSv/h),MP-5(microSv/h),MP-6(microSv/h),MP-7(microSv/h),Wind Direction,Wind Velocity(m/s),Rain
2017/11/06,00:00,0.325,0.209,0.343,0.323,0.310,0.169,0.099,west,2.9,No
2017/11/06,00:10,0.326,0.209,0.344,0.323,0.311,0.169,0.100,west,2.9,No
2017/11/06,00:20,0.326,0.209,0.343,0.324,0.309,0.167,0.101,west-southwest,4.9,No
2017/11/06,00:30,0.325,0.210,0.342,0.323,0.309,0.168,0.101,southwest,4.8,No
2017/11/06,00:40,0.327,0.209,0.344,0.323,0.309,0.169,0.101,southwest,5.2,No
2017/11/06,00:50,0.326,0.210,0.343,0.323,0.310,0.168,0.100,southwest,4.2,No
2017/11/06,01:00,0.326,0.210,0.343,0.322,0.307,0.168,0.100,southwest,3.9,No
2017/11/06,01:10,0.326,0.209,0.343,0.324,0.310,0.167,0.101,southwest,4.1,No
2017/11/06,01:20,0.327,0.209,0.343,0.323,0.310,0.168,0.100,southwest,3.2,No
2017/11/06,01:30,0.326,0.210,0.342,0.323,0.309,0.167,0.100,west-southwest,2.3,No
2017/11/06,01:40,0.326,0.210,0.343,0.323,0.310,0.169,0.100,west-southwest,2.1,No
2017/11/06,01:50,0.326,0.210,0.343,0.324,0.310,0.169,0.100,southwest,2.0,No
2017/11/06,02:00,0.327,0.210,0.344,0.324,0.309,0.168,0.102,southwest,2.0,No
2017/11/06,02:10,0.326,0.210,0.343,0.323,0.310,0.168,0.100,south-southwest,2.3,No
2017/11/06,02:20,0.328,0.210,0.343,0.322,0.310,0.168,0.101,south-southeast,0.9,No
2017/11/06,02:30,0.326,0.209,0.344,0.325,0.310,0.169,0.101,southeast,1.8,No
2017/11/06,02:40,0.327,0.209,0.344,0.323,0.308,0.167,0.100,southwest,1.7,No
2017/11/06,02:50,0.327,0.210,0.344,0.322,0.310,0.167,0.100,south-southwest,2.1,No
2017/11/06,03:00,0.326,0.210,0.344,0.324,0.310,0.168,0.100,south-southwest,1.9,No
2017/11/06,03:10,0.328,0.210,0.342,0.325,0.310,0.168,0.101,south,1.7,No
2017/11/06,03:20,0.326,0.210,0.343,0.324,0.310,0.168,0.101,south,2.2,No
2017/11/06,03:30,0.326,0.210,0.343,0.323,0.310,0.169,0.102,south,1.5,No
2017/11/06,03:40,0.327,0.210,0.346,0.323,0.309,0.168,0.100,south-southwest,1.8,No
2017/11/06,03:50,0.327,0.209,0.343,0.323,0.310,0.168,0.100,south,2.1,No
2017/11/06,04:00,0.327,0.210,0.343,0.324,0.312,0.168,0.101,south,3.3,No
2017/11/06,04:10,0.328,0.210,0.343,0.324,0.310,0.168,0.101,south-southwest,3.7,No
2017/11/06,04:20,0.328,0.209,0.344,0.324,0.310,0.168,0.100,south-southwest,3.4,No
2017/11/06,04:30,0.327,0.208,0.342,0.324,0.310,0.169,0.101,south-southwest,2.7,No
2017/11/06,04:40,0.327,0.211,0.343,0.325,0.310,0.168,0.101,southwest,2.7,No
2017/11/06,04:50,0.328,0.209,0.343,0.323,0.310,0.168,0.101,southwest,2.8,No
2017/11/06,05:00,0.327,0.209,0.345,0.324,0.309,0.167,0.101,west-southwest,2.4,No
2017/11/06,05:10,0.326,0.208,0.345,0.323,0.309,0.167,0.100,west-southwest,2.3,No
2017/11/06,05:20,0.326,0.209,0.342,0.324,0.310,0.169,0.101,southwest,3.6,No
2017/11/06,05:30,0.327,0.209,0.341,0.323,0.309,0.167,0.100,southwest,4.5,No
2017/11/06,05:40,0.326,0.208,0.344,0.323,0.312,0.169,0.100,southwest,4.9,No
2017/11/06,05:50,0.326,0.209,0.341,0.324,0.311,0.168,0.101,southwest,5.6,No
2017/11/06,06:00,0.325,0.210,0.344,0.324,0.310,0.169,0.100,southwest,7.0,No
2017/11/06,06:10,0.328,0.209,0.344,0.322,0.310,0.169,0.101,southwest,6.9,No
2017/11/06,06:20,0.326,0.208,0.344,0.322,0.309,0.168,0.101,southwest,6.7,No
2017/11/06,06:30,0.325,0.209,0.342,0.323,0.310,0.168,0.101,southwest,6.8,No
2017/11/06,06:40,0.327,0.209,0.342,0.323,0.310,0.168,0.100,southwest,7.4,No
2017/11/06,06:50,0.326,0.209,0.344,0.322,0.310,0.169,0.100,southwest,7.0,No
2017/11/06,07:00,0.326,0.209,0.343,0.325,0.309,0.168,0.100,southwest,6.4,No
2017/11/06,07:10,0.327,0.210,0.342,0.324,0.310,0.169,0.100,southwest,8.5,No
2017/11/06,07:20,0.326,0.209,0.345,0.322,0.310,0.168,0.100,southwest,8.4,No
2017/11/06,07:30,0.325,0.209,0.344,0.324,0.309,0.168,0.100,southwest,7.4,No
2017/11/06,07:40,0.326,0.209,0.341,0.324,0.311,0.168,0.100,southwest,6.5,No
2017/11/06,07:50,0.326,0.208,0.345,0.322,0.311,0.168,0.100,southwest,6.2,No
2017/11/06,08:00,0.324,0.209,0.341,0.323,0.309,0.168,0.101,southwest,6.8,No
2017/11/06,08:10,0.326,0.209,0.341,0.322,0.312,0.167,0.099,south-southwest,6.6,No
2017/11/06,08:20,0.326,0.210,0.344,0.324,0.309,0.168,0.100,south,4.0,No
2017/11/06,08:30,0.326,0.209,0.341,0.320,0.312,0.168,0.099,south,3.7,No
2017/11/06,08:40,0.327,0.207,0.343,0.322,0.310,0.168,0.099,south,3.0,No
2017/11/06,08:50,0.325,0.209,0.343,0.320,0.310,0.167,0.100,south,2.5,No
2017/11/06,09:00,0.326,0.208,0.342,0.324,0.311,0.168,0.100,south,1.5,No
2017/11/06,09:10,0.325,0.209,0.342,0.322,0.311,0.168,0.100,south-southwest,3.3,No
2017/11/06,09:20,0.326,0.208,0.341,0.322,0.311,0.168,0.101,south-southwest,2.3,No
2017/11/06,09:30,0.322,0.209,0.343,0.325,0.310,0.168,0.100,south,3.3,No
2017/11/06,09:40,0.326,0.209,0.342,0.320,0.306,0.167,0.100,south-southwest,5.7,No
2017/11/06,09:50,0.323,0.207,0.342,0.320,0.311,0.167,0.101,south,6.2,No
2017/11/06,10:00,0.319,0.209,0.343,0.324,0.307,0.168,0.100,south,7.7,No
2017/11/06,10:10,0.325,0.207,0.341,0.320,0.306,0.168,0.100,south,7.0,No
2017/11/06,10:20,0.322,0.207,0.342,0.321,0.309,0.168,0.101,south,8.2,No
2017/11/06,10:30,0.321,0.208,0.343,0.325,0.310,0.167,0.100,south-southwest,7.5,No
2017/11/06,10:40,0.321,0.208,0.342,0.322,0.307,0.169,0.100,south-southwest,6.8,No
2017/11/06,10:50,0.325,0.207,0.341,0.320,0.310,0.169,0.101,south-southwest,8.1,No
2017/11/06,11:00,0.326,0.209,0.342,0.322,0.310,0.168,0.100,south-southwest,7.9,No
2017/11/06,11:10,0.323,0.208,0.341,0.324,0.309,0.169,0.099,south-southwest,7.6,No
2017/11/06,11:20,0.322,0.208,0.343,0.323,0.307,0.169,0.100,south,7.6,No
2017/11/06,11:30,0.321,0.207,0.342,0.321,0.312,0.167,0.099,south,6.4,No
2017/11/06,11:40,0.327,0.209,0.341,0.324,0.310,0.168,0.099,south,8.4,No
2017/11/06,11:50,0.326,0.209,0.343,0.323,0.307,0.168,0.101,south,9.5,No
2017/11/06,12:00,0.321,0.208,0.341,0.319,0.311,0.167,0.100,south,9.5,No
2017/11/06,12:10,0.328,0.208,0.345,0.323,0.310,0.169,0.099,south,10.1,No
2017/11/06,12:20,0.328,0.210,0.341,0.323,0.308,0.168,0.101,south,10.1,No
2017/11/06,12:30,0.323,0.207,0.338,0.321,0.309,0.169,0.100,south,9.5,No
2017/11/06,12:40,0.327,0.209,0.342,0.321,0.312,0.168,0.101,south,10.6,No
2017/11/06,12:50,0.326,0.209,0.341,0.325,0.309,0.168,0.101,south,9.6,No
2017/11/06,13:00,0.323,0.208,0.338,0.323,0.310,0.168,0.100,south-southwest,10.1,No
2017/11/06,13:10,0.328,0.209,0.343,0.320,0.312,0.168,0.101,south,8.6,No
2017/11/06,13:20,0.325,0.209,0.343,0.323,0.310,0.169,0.101,south-southwest,7.8,No
2017/11/06,13:30,0.326,0.209,0.339,0.326,0.306,0.170,0.100,south-southwest,7.1,No
2017/11/06,13:40,0.327,0.205,0.340,0.322,0.312,0.168,0.100,south,8.2,No
2017/11/06,13:50,0.323,0.209,0.343,0.321,0.311,0.169,0.100,south,8.4,No
2017/11/06,14:00,0.327,0.210,0.341,0.326,0.308,0.168,0.100,south-southwest,7.5,No
2017/11/06,14:10,0.326,0.208,0.346,0.324,0.313,0.168,0.100,south,8.9,No
2017/11/06,14:20,0.326,0.208,0.343,0.323,0.310,0.168,0.101,south,8.7,No
2017/11/06,14:30,0.326,0.209,0.345,0.325,0.311,0.168,0.100,south,8.4,No
2017/11/06,14:40,0.325,0.209,0.343,0.323,0.314,0.169,0.100,south,8.8,No
2017/11/06,14:50,0.326,0.209,0.342,0.327,0.310,0.167,0.100,south,9.2,No
2017/11/06,15:00,0.326,0.210,0.345,0.324,0.314,0.169,0.101,south,8.8,No
2017/11/06,15:10,0.327,0.208,0.343,0.324,0.311,0.168,0.100,south-southwest,9.3,No
2017/11/06,15:20,0.324,0.210,0.344,0.325,0.312,0.168,0.100,south-southwest,8.9,No
2017/11/06,15:30,0.327,0.209,0.342,0.323,0.311,0.169,0.100,south-southwest,8.4,No
2017/11/06,15:40,0.325,0.210,0.346,0.326,0.312,0.169,0.101,south-southwest,8.7,No
2017/11/06,15:50,0.327,0.209,0.342,0.323,0.311,0.168,0.101,south-southwest,8.9,No
2017/11/06,16:00,0.325,0.210,0.345,0.325,0.311,0.169,0.101,south-southwest,7.9,No
2017/11/06,16:10,0.327,0.209,0.342,0.324,0.311,0.169,0.100,south-southwest,8.5,No
2017/11/06,16:20,0.325,0.209,0.344,0.325,0.310,0.169,0.101,south-southwest,8.2,No
2017/11/06,16:30,0.327,0.209,0.343,0.323,0.311,0.169,0.100,south-southwest,7.5,No
2017/11/06,16:40,0.326,0.209,0.344,0.325,0.313,0.170,0.101,south-southwest,7.7,No
2017/11/06,16:50,0.327,0.209,0.342,0.323,0.312,0.170,0.101,south-southwest,8.4,No
2017/11/06,17:00,0.326,0.209,0.345,0.325,0.314,0.169,0.101,south-southwest,6.7,No
2017/11/06,17:10,0.326,0.209,0.342,0.324,0.310,0.169,0.101,south-southwest,7.1,No
2017/11/06,17:20,0.327,0.209,0.344,0.324,0.313,0.169,0.101,south-southwest,7.3,No
2017/11/06,17:30,0.326,0.208,0.343,0.325,0.310,0.169,0.101,south-southwest,5.1,No
2017/11/06,17:40,0.326,0.209,0.344,0.323,0.313,0.169,0.101,south-southwest,6.4,No
2017/11/06,17:50,0.325,0.210,0.344,0.326,0.311,0.169,0.100,south-southwest,6.2,No
2017/11/06,18:00,0.327,0.209,0.343,0.324,0.312,0.170,0.101,southwest,4.7,No
2017/11/06,18:10,0.326,0.211,0.344,0.325,0.312,0.169,0.101,southwest,4.3,No
2017/11/06,18:20,0.327,0.210,0.343,0.325,0.311,0.169,0.101,south-southwest,4.1,No
2017/11/06,18:30,0.328,0.210,0.344,0.324,0.313,0.169,0.101,south-southwest,4.6,No
2017/11/06,18:40,0.328,0.210,0.344,0.326,0.310,0.170,0.102,south-southwest,5.3,No
2017/11/06,18:50,0.328,0.210,0.344,0.325,0.313,0.169,0.101,south-southwest,5.7,No
2017/11/06,19:00,0.326,0.211,0.344,0.324,0.312,0.170,0.101,south-southwest,4.3,No
2017/11/06,19:10,0.327,0.210,0.342,0.326,0.312,0.170,0.102,south-southwest,4.2,No
2017/11/06,19:20,0.325,0.210,0.346,0.324,0.312,0.170,0.101,southwest,4.2,No
2017/11/06,19:30,0.325,0.209,0.343,0.324,0.311,0.169,0.101,southwest,4.9,No
2017/11/06,19:40,0.327,0.210,0.342,0.326,0.313,0.170,0.102,southwest,5.3,No
2017/11/06,19:50,0.327,0.211,0.345,0.324,0.311,0.170,0.101,southwest,5.5,No
2017/11/06,20:00,0.326,0.209,0.342,0.326,0.311,0.170,0.100,southwest,5.5,No
2017/11/06,20:10,0.327,0.210,0.344,0.325,0.312,0.169,0.101,southwest,4.5,No
2017/11/06,20:20,0.325,0.210,0.344,0.325,0.311,0.169,0.101,southwest,4.6,No
2017/11/06,20:30,0.327,0.209,0.343,0.326,0.311,0.170,0.101,southwest,4.4,No
2017/11/06,20:40,0.327,0.210,0.344,0.324,0.310,0.169,0.102,south-southwest,4.3,No
2017/11/06,20:50,0.327,0.211,0.343,0.326,0.311,0.169,0.101,south-southwest,4.6,No
2017/11/06,21:00,0.328,0.211,0.343,0.324,0.313,0.169,0.101,south-southwest,4.3,No
2017/11/06,21:10,0.326,0.209,0.345,0.326,0.311,0.169,0.101,south-southwest,4.5,No
2017/11/06,21:20,0.327,0.210,0.344,0.326,0.312,0.170,0.101,southwest,4.4,No
2017/11/06,21:30,0.328,0.210,0.344,0.324,0.310,0.169,0.100,southwest,3.5,No
2017/11/06,21:40,0.326,0.210,0.344,0.325,0.310,0.169,0.101,southwest,3.6,No
2017/11/06,21:50,0.327,0.210,0.343,0.325,0.312,0.169,0.101,southwest,3.4,No
2017/11/06,22:00,0.327,0.209,0.344,0.325,0.310,0.170,0.100,southwest,3.3,No
2017/11/06,22:10,0.326,0.209,0.344,0.325,0.311,0.169,0.101,southwest,2.4,No
2017/11/06,22:20,0.327,0.211,0.342,0.327,0.311,0.170,0.101,southwest,2.6,No
2017/11/06,22:30,0.326,0.210,0.345,0.325,0.310,0.168,0.100,southwest,2.6,No
2017/11/06,22:40,0.326,0.209,0.344,0.325,0.312,0.169,0.101,southwest,2.5,No
2017/11/06,22:50,0.328,0.209,0.343,0.325,0.309,0.170,0.101,southwest,2.6,No
2017/11/06,23:00,0.326,0.210,0.344,0.325,0.313,0.170,0.101,southwest,2.5,No
2017/11/06,23:10,0.326,0.210,0.342,0.325,0.310,0.170,0.100,west-southwest,1.7,No
2017/11/06,23:20,0.327,0.210,0.345,0.325,0.312,0.169,0.101,southwest,2.0,No
2017/11/06,23:30,0.326,0.210,0.343,0.324,0.311,0.170,0.101,southwest,2.7,No
2017/11/06,23:40,0.327,0.210,0.345,0.326,0.310,0.170,0.101,west-southwest,3.1,No
2017/11/06,23:50,0.326,0.209,0.345,0.324,0.311,0.168,0.101,west-southwest,2.1,No
